sat.trackr.live / text

‹ back to catalog

STARLINK-32810

NORAD 63037 · 2025-034J

PAYLOAD ACTIVE UNKNOWN

§ Identity

Operator
Country
US
Launch date
2025-02-18
Launch site
AFETR
Launch vehicle
Mass (kg)
RCS (m²)

Purposes: comms

External: N2YO · Heavens-Above · Gunter

§ Orbital elements

Epoch: 2026-09-21T18:08:25.006272Z

Period
93.85 min
Inclination
53.1590°
Eccentricity
0.0001175
Mean motion
15.34366881 rev/d
Perigee alt
462.0 km
Apogee alt
463.6 km
Semi-major
6,840.9 km
B*
4.0993e-4
RAAN
63.9971°
Arg perigee
138.2464°
Mean anomaly
221.8629°
Rev number
8,915

§ Raw data

STARLINK-328101 63037U 25034J   26264.75584498  .00013485  00000+0  40993-3 0  99912 63037  53.1590  63.9971 0001175 138.2464 221.8629 15.34366881 89159

JSON: /api/v1/satellites/63037 · /tle

For live sub-satellite position, see the globe view (requires WebGL).

§ Visibility from observer

Set your observer location to see the next 7 days of passes ≥ 10°. The values pass through the URL so the page stays shareable.

No JS? Fill the form by hand. The geolocation button needs JavaScript.